Orbital Elements at Epoch 2459000.5 (2020-May-31.0) TDB
Reference: JPL 78 (heliocentric ecliptic J2000)
Element | Value | Uncertainty (1-sigma) | Units |
e | .0122734172703169 | 3.4755e-08 | |
a | 2.86993166328032 | 1.3442e-08 | au |
q | 2.834707794439586 | 9.7095e-08 | au |
i | 3.211896081125219 | 3.6563e-06 | deg |
node | 112.7271782329485 | 6.3082e-05 | deg |
peri | 151.184613893986 | 0.00015581 | deg |
M | 207.4924926184181 | 0.00014326 | deg |
tp | 2459752.805925716089 (2022-Jun-22.30592572) | 0.00070685 | TDB |
period | 1775.84787731243 4.86 | 1.2477e-05 3.416e-08 | d yr |
n | .2027200666223868 | 1.4243e-09 | deg/d |
Q | 2.905155532121054 | 1.3607e-08 | au |
|
| | Orbit Determination Parameters
Additional Information
|